Location: Newark
(41.8083°N, 72.2500°W)
Time: 21:08:58
(UTC+00:00)

Courier 1B - Pass Details

Date: 02 December 2021
Orbit: 962 x 1209 km, 28.3° (Epoch: 19 January)

Event Time Altitude Azimuth Distance (km) Brightness Sun altitude
Rises 03:17:07 0° 254° (WSW) 3,745 - -63.9°
Reaches altitude 10° 03:22:02 10° 223° (SW) 2,740 - -64.5°
Maximum altitude 03:24:06 12° 204° (SSW) 2,609 - -64.8°
Drops below altitude 10° 03:26:09 10° 186° (S) 2,706 - -65.0°
Sets 03:30:55 0° 155° (SSE) 3,628 - -65.6°
